USA 40 R/B DEB, 23362

Orbit data source: Space-Track

USA 40 R/B DEB, 23362 is space debris originally from a launch on Tue, 08 Aug 1989 UTC launched from the Air Force Eastern Test Range (AFETR). Debris objects in space refer to the collection of defunct objects orbiting the Earth. Examples of debris include non-operational satellites, rocket bodies, and fragments generated from explosions, collisions, or faulty payload assembly.

Loading next visibility...
Identifier
23362, 1989-061AJ
Orbit
Active
Country
Flag of USUS
Related business
Manufacturer
Unknown
Mission
Spacecraft
Bus & Motor
Unknown
Mass
Unknown
Launch date (UTC)
1989-08-08 (37 years ago)
Launch vehicle
Unknown
Launch site
Air Force Eastern Test Range (AFETR)
Object type
Payload
Rocket body
Debris
Shape & HBR
Unknown shape, 0.1 m
Radar Cross Section
Medium (>0.1 m² and <1 m²)

Expand to show TLE details & history
Last TLE update: 2 days ago

TLE from 2 days ago
0 USA 40 R/B DEB
1 23362U 89061AJ  26171.22043844  .00004815  00000-0  48142-2 0  9993
2 23362  56.8529 103.0649 2600565 124.2022 263.3190  9.54242477248410
Epoch: 2026-06-20T05:17Z
TLE epoch observation values (Epoch: 2026-06-20T05:17:25.881Z)
Latitude
Longitude
115.26888°
Altitude
3,872.541 km
Speed
5.945 km/s
True Right ascension
06h 52m 15s
True Declination
0° 00' 00"
Sunlit
Object was in daylight at epoch
Visualization orbit readout
Latitude
Unknown
Longitude
Unknown
Altitude
Unknown
Speed
Unknown
Apparent Right ascension
Unknown
Apparent Declination
Unknown
Sunlit
N/A
Visualization observer readout
Local Sidereal Time
02:13:25
Azimuth
Unknown
Elevation
Unknown
Doppler factor
Unknown
Orbital elements
Apogee altitude
5,452.475 km
Perigee altitude
569.158 km
Semi-major axis
9,388.954 km
Eccentricity
0.26006
Inclination
56.8529°
RAAN
103.0649°
Arg. of periapsis
124.2022°
True anomaly
235.87942°
Mean anomaly
263.319°
Eccentric anomaly
249.37397°
Mean motion
2.38571 °/min
Orbital period
150.9 mins
BSTAR
0.0048142
Loading maneuver chart data...
Computing Atmospheric mass density...
Loading historical data...
Loading historical data...
Loading historical data...
Loading historical data...
Loading historical data...
Loading historical data...
Loading historical data...

Documentation

Showing up to 5 results
|